RH
35 32 30 25 20 17 16 17 19 19 17 16 17 18 20 24 26 27 28 29 30 31 33 34 35 35 36 34 29 25 27 30 32 36 39 40 42 45 49 52 52 50 45 41 39 38 35 29 27 33 34 31 33 34 32 31 30 33 36 35 34 35 39 45 49 49 51 56 63 73 83 84 81 77 72 74 81 85 91 93 93 95 95 95 97
37 34 34 31 26 22 18 18 19 21 20 18 18 18 18 21 24 27 29 29 29 31 33 34 33 35 36 33 29 25 26 29 31 35 37 40 42 44 47 53 53 49 44 39 36 34 31 28 28 33 36 32 31 31 29 27 27 28 31 33 34 35 35 38 40 42 47 54 61 72 81 82 82 81 75 74 79 83 89 93 92 94 96 96 97
38 35 35 34 32 28 24 21 21 23 23 21 20 19 19 20 23 26 29 28 30 32 34 34 34 34 35 34 30 26 25 28 31 34 37 41 43 43 45 49 48 44 39 34 30 28 27 27 28 33 38 35 31 29 26 25 25 28 31 35 38 39 39 38 37 37 41 48 57 67 73 79 84 84 78 74 76 82 89 94 94 93 93 95 96
39 36 35 35 35 33 30 27 25 25 25 24 23 22 21 22 24 28 30 29 30 33 34 35 35 35 36 35 31 27 25 26 29 33 37 40 43 43 43 42 40 38 36 31 27 26 27 28 29 33 39 37 32 28 26 24 25 28 32 36 39 39 39 39 38 37 35 40 52 60 66 76 87 89 81 74 76 82 88 93 96 95 94 94 94
41 38 37 37 36 36 35 33 31 29 27 25 24 23 23 23 25 28 31 32 32 34 36 36 36 37 37 36 33 28 26 26 27 31 35 38 42 43 40 37 36 37 36 31 25 25 27 28 29 32 38 39 34 29 26 25 25 28 32 37 39 38 39 39 39 37 35 37 48 55 59 72 90 95 87 77 79 86 88 91 95 94 94 94 94
44 42 40 39 38 38 38 38 37 36 34 32 30 28 26 25 26 27 29 32 33 35 38 39 38 39 39 37 35 31 28 28 28 29 32 36 40 42 39 37 38 39 37 31 25 26 30 29 29 32 38 41 36 30 28 26 25 28 32 35 38 39 39 39 38 37 36 39 49 54 55 70 91 99 92 81 81 89 91 92 94 94 93 95 95
46 44 43 43 42 41 41 41 41 41 42 43 41 37 32 30 30 32 33 33 35 37 40 40 39 39 39 38 37 34 30 29 29 29 31 35 38 40 40 40 40 40 39 32 24 27 32 31 31 35 40 42 38 33 30 27 25 28 30 33 38 40 40 41 39 37 37 44 54 56 58 74 90 94 92 82 78 88 93 92 94 95 93 94 95
48 47 46 45 45 44 44 45 44 44 47 50 50 48 42 36 34 36 38 38 38 40 42 43 41 39 39 39 38 36 33 32 31 30 31 34 36 40 41 42 41 41 42 36 24 26 34 34 34 40 43 42 38 34 32 29 29 31 31 33 39 42 43 44 41 37 38 48 57 59 63 74 82 85 90 84 77 86 93 91 94 98 96 94 93
50 49 48 47 48 47 47 48 48 47 50 53 57 60 56 48 42 42 43 42 42 44 46 47 46 42 39 39 38 38 36 35 33 32 33 35 37 41 43 43 41 41 43 38 25 25 34 35 36 42 45 41 39 37 33 31 32 34 35 36 40 44 47 47 43 38 40 49 58 62 63 68 75 84 90 83 77 84 92 92 93 97 98 97 94
53 53 52 52 52 52 53 53 51 47 48 52 58 62 59 54 53 53 51 46 44 47 50 51 51 46 42 41 40 38 38 37 36 35 34 37 41 43 44 45 42 40 41 37 26 24 33 36 36 41 44 40 38 37 34 32 34 36 38 39 41 44 47 47 43 39 43 51 58 62 63 65 77 91 92 83 76 81 90 92 94 96 98 98 97
55 55 55 55 56 56 57 58 55 49 46 48 52 52 50 49 52 54 52 49 48 52 52 53 54 50 45 45 44 41 39 39 39 37 36 39 43 44 45 47 44 40 40 37 27 24 32 37 36 38 40 37 34 34 34 32 33 36 40 42 42 43 44 45 43 42 46 54 59 63 67 74 86 93 91 85 78 81 91 94 92 95 97 97 97
56 57 58 58 58 59 59 60 60 56 52 49 49 48 46 46 48 49 50 50 51 52 50 50 53 52 49 50 49 45 42 40 39 39 38 39 43 44 45 48 46 40 40 38 28 23 29 36 37 37 36 32 31 34 34 31 32 35 39 42 42 43 44 44 44 44 49 55 59 64 69 77 88 91 89 86 79 82 95 95 89 93 97 96 96
57 58 60 61 61 62 61 61 62 61 58 54 51 50 48 48 48 49 50 50 51 52 49 47 47 47 48 53 54 49 46 46 44 41 40 39 42 43 44 48 49 42 39 37 30 23 27 34 37 38 36 32 32 35 33 30 31 35 37 40 41 42 43 45 45 45 49 55 59 63 68 75 86 91 88 84 77 82 95 95 88 93 97 95 95
57 58 60 61 63 63 63 62 62 62 62 59 55 53 51 50 51 51 53 54 54 53 51 48 45 40 41 49 54 51 48 52 52 48 43 41 41 42 43 47 50 45 38 36 30 24 26 33 37 38 36 32 31 33 31 28 30 34 37 39 41 40 39 42 45 45 48 55 59 63 68 77 87 89 84 80 77 79 85 88 89 93 95 94 94
59 60 61 62 63 63 63 63 62 62 63 63 61 58 55 54 53 54 57 59 57 55 53 53 51 48 44 44 45 41 40 50 58 55 49 46 42 40 42 46 50 46 38 34 30 25 25 31 37 39 37 33 31 31 30 29 30 34 37 40 42 43 39 39 45 47 49 54 60 64 68 75 82 84 80 77 78 78 76 82 90 93 91 93 95
63 63 63 64 64 64 64 64 64 65 64 64 64 63 61 59 57 56 58 60 60 59 58 56 54 56 55 49 40 31 29 41 53 53 52 52 46 40 40 44 48 46 39 34 30 25 25 30 35 39 37 34 32 31 30 30 31 34 38 40 44 46 43 41 45 51 53 56 62 65 68 70 75 82 83 77 75 76 75 77 84 88 88 92 94
66 65 65 66 67 67 68 68 67 67 67 67 67 68 68 66 61 59 59 61 62 62 62 61 57 58 60 58 50 39 32 36 40 40 48 56 51 41 38 41 46 46 40 34 30 26 25 28 33 38 39 35 33 32 31 30 31 35 39 40 42 45 45 43 46 52 57 60 63 65 68 69 73 81 84 79 74 75 76 76 78 80 84 90 93
69 69 69 70 71 72 72 72 71 70 70 71 71 71 71 69 65 62 60 61 62 63 64 65 63 61 61 62 61 56 49 44 38 35 47 59 53 43 39 40 45 46 41 36 31 27 26 26 29 36 39 37 34 33 31 30 31 35 39 40 41 44 45 44 45 49 56 61 65 67 68 69 73 77 77 75 74 73 72 74 77 76 78 86 93
73 73 74 75 75 75 75 75 75 73 73 74 74 72 70 68 65 63 62 62 61 61 63 64 65 65 62 62 66 64 59 56 48 43 51 57 52 44 40 40 44 45 42 38 32 28 26 26 28 33 37 37 35 32 31 30 31 35 39 39 40 42 45 46 45 46 51 58 65 70 70 68 71 73 70 68 70 70 69 71 76 76 75 81 87
76 77 78 78 78 78 78 78 77 75 73 73 74 73 70 67 65 64 64 63 62 61 61 63 66 67 63 61 64 62 60 60 57 52 51 53 52 50 44 41 44 45 43 42 35 28 28 28 28 31 34 35 34 31 29 31 32 34 36 36 36 37 39 42 47 48 51 56 62 69 73 71 69 68 68 67 69 70 70 71 74 74 73 77 80
75 77 78 79 79 79 79 79 79 78 76 74 74 74 72 69 67 66 66 66 65 64 63 63 66 68 66 63 62 61 60 62 62 59 53 49 53 56 48 40 44 46 45 44 38 30 29 30 30 32 32 31 31 28 26 30 34 35 35 33 32 32 31 33 41 45 50 57 61 65 70 72 68 65 66 70 72 71 70 74 76 73 72 75 78
72 74 75 76 77 78 78 79 79 79 77 75 74 74 72 70 68 68 70 71 70 69 69 68 68 69 68 65 62 61 60 60 62 62 56 48 50 57 53 43 44 47 47 47 42 33 31 32 32 33 33 31 28 24 21 26 33 33 33 31 30 29 25 25 32 39 46 56 62 64 66 67 67 67 69 72 73 69 69 76 79 74 71 74 78
71 72 73 73 74 75 76 77 78 78 76 74 73 72 72 71 70 72 75 78 78 76 75 74 72 71 72 68 63 61 61 60 59 57 55 50 48 54 55 49 45 47 49 49 44 35 32 34 34 35 35 33 29 23 17 22 30 30 28 28 28 27 24 22 26 33 41 52 60 64 67 66 66 71 73 73 71 68 67 73 79 77 74 74 77
69 70 71 72 72 72 73 74 75 76 76 74 72 71 71 70 69 72 77 82 83 81 80 81 80 79 77 70 63 61 62 60 56 50 50 53 51 50 53 53 49 47 49 52 48 37 32 33 35 36 36 34 31 24 17 18 26 29 26 25 26 27 24 22 26 31 41 54 60 62 65 66 66 71 76 74 72 70 67 69 74 77 78 78 77
66 68 69 69 69 70 71 71 71 70 70 70 71 71 70 68 67 68 72 78 82 83 84 85 84 82 80 72 65 64 63 61 57 49 48 56 56 50 50 53 51 48 50 54 51 40 32 32 35 36 37 35 32 26 18 16 23 29 27 24 27 29 26 23 25 31 43 59 62 58 61 67 68 73 77 77 75 73 69 67 70 76 81 83 81
62 63 64 65 64 64 64 64 64 63 63 64 65 67 67 68 67 67 70 74 78 80 82 85 83 81 80 76 71 68 64 62 60 53 50 57 61 55 50 51 52 51 51 55 55 44 33 32 35 35 36 35 33 27 19 15 21 29 28 23 26 31 29 24 24 30 43 58 60 57 62 68 69 73 78 78 75 74 72 70 71 76 83 88 87
57 58 58 59 58 58 58 57 57 58 59 59 61 62 63 64 65 66 68 70 72 74 78 83 83 81 79 78 74 71 67 63 62 60 57 59 61 56 50 50 53 53 53 56 57 48 35 31 34 35 35 35 33 27 19 16 20 28 29 25 25 31 32 27 23 26 37 50 58 59 63 67 69 72 77 77 73 74 77 78 76 77 82 88 88
51 52 52 52 53 53 53 53 53 53 53 54 55 56 57 58 60 63 65 67 69 74 80 85 86 82 78 74 72 73 70 65 62 64 62 59 57 54 51 52 56 56 54 57 59 50 37 32 34 36 35 35 33 27 20 18 23 28 29 27 27 30 32 29 23 23 30 41 52 56 59 64 69 72 75 77 75 78 85 89 86 84 85 89 91
45 47 47 48 49 50 51 51 51 50 50 49 49 49 49 49 51 55 58 61 64 70 79 86 89 87 81 74 72 72 70 64 61 63 63 60 57 54 54 57 58 56 55 59 61 53 39 32 34 36 35 33 32 27 21 20 25 29 29 30 30 29 30 30 26 22 25 33 44 51 54 58 65 71 76 78 78 81 88 92 93 94 93 94 94
42 43 45 46 47 48 50 51 51 51 50 49 49 48 48 47 48 50 52 55 57 62 70 78 84 86 84 79 73 69 67 64 62 62 62 60 59 61 62 62 58 56 57 60 62 55 41 33 33 35 34 32 30 27 22 20 26 30 29 29 30 28 28 29 27 24 24 27 35 46 52 53 57 64 73 77 77 81 88 91 93 97 97 95 95
42 42 43 44 45 46 48 49 50 51 51 50 50 49 48 47 48 49 50 51 53 57 63 68 73 76 79 79 74 68 66 66 65 65 63 60 61 67 69 61 56 57 60 61 63 57 43 33 33 34 34 32 30 27 22 19 24 29 30 30 30 28 27 28 28 26 26 25 29 39 48 52 53 57 67 77 78 80 86 90 93 97 97 93 93
41 40 40 40 41 42 44 45 46 47 48 47 48 46 44 43 43 45 48 51 53 57 60 63 67 70 75 78 78 74 70 67 67 68 65 61 63 69 67 58 55 60 63 62 64 59 45 34 33 34 33 32 30 27 22 19 21 28 31 30 30 29 27 27 28 27 26 26 28 33 38 46 52 53 61 75 80 80 84 90 94 97 98 96 94
38 37 36 35 35 35 36 37 38 39 40 40 41 41 41 41 40 42 46 49 53 58 62 64 66 68 72 76 77 79 77 70 66 67 67 65 68 70 65 58 58 62 64 64 64 61 47 35 33 34 33 31 30 27 23 18 19 26 30 30 30 30 27 26 28 29 27 25 28 31 30 37 48 51 56 71 80 80 85 91 93 95 98 98 97
35 35 34 32 31 30 30 30 32 33 35 36 37 38 40 41 42 43 45 47 51 57 63 67 67 66 69 71 73 77 79 72 65 66 69 71 72 68 63 60 60 62 64 66 66 61 49 36 33 35 33 30 30 28 24 19 17 23 28 30 30 30 28 26 28 31 29 25 28 31 29 32 42 48 53 67 79 82 85 91 93 93 95 96 97
32 31 30 30 29 28 28 28 28 31 33 35 36 38 39 41 42 43 45 47 50 55 63 69 70 67 68 69 69 73 78 73 65 66 72 76 73 66 62 62 61 62 65 67 67 64 51 38 34 35 33 31 31 29 25 20 17 19 24 28 29 30 29 27 29 32 31 26 28 32 31 32 40 47 53 64 76 81 83 88 91 93 94 94 94
30 28 27 27 26 26 26 27 28 29 31 33 34 36 38 39 39 40 42 45 47 51 57 65 69 68 68 68 69 73 79 75 66 65 73 80 77 69 64 62 59 60 65 67 68 67 54 39 34 36 34 32 32 30 25 20 17 16 19 24 27 30 30 29 30 32 31 28 27 31 32 33 39 47 54 61 71 76 79 82 87 90 92 93 93
28 26 25 25 26 26 27 28 29 30 31 31 32 33 35 36 37 37 38 40 43 46 49 55 61 65 64 65 67 72 78 76 67 63 71 81 79 71 65 62 58 59 63 67 70 70 59 43 36 36 35 33 32 30 26 21 17 15 16 18 23 29 30 30 30 31 31 30 28 30 33 34 38 47 55 60 66 72 75 77 81 84 85 88 91
27 26 27 27 28 29 30 31 33 34 34 34 34 35 35 35 36 37 37 38 41 45 46 48 54 60 64 65 66 69 74 74 66 61 70 81 80 72 68 65 59 57 61 67 71 72 62 47 38 37 36 34 33 31 27 21 18 16 15 15 18 25 30 31 31 30 31 31 29 31 34 34 35 45 54 59 63 68 71 72 74 78 79 80 85
28 28 29 29 30 31 32 33 34 36 36 36 37 37 38 38 38 38 40 40 41 43 46 47 50 55 63 68 68 68 71 72 68 67 76 84 80 72 68 63 55 52 58 66 72 74 67 51 40 38 37 35 34 32 27 21 18 16 14 13 14 19 26 31 32 31 31 30 30 31 34 34 34 40 50 57 60 64 66 66 69 73 75 77 80
30 29 29 30 31 32 33 34 35 36 37 38 39 39 39 40 40 40 41 42 42 42 45 47 49 52 60 68 71 72 72 70 69 73 80 83 81 75 68 61 53 50 56 65 71 76 70 54 41 39 39 37 36 34 28 22 18 16 15 14 12 13 21 29 33 33 31 30 31 31 32 35 35 35 41 51 56 57 58 60 64 69 74 77 81
30 30 31 32 33 34 35 35 36 36 37 39 40 41 42 42 42 42 42 43 43 43 43 46 49 53 58 65 73 77 76 74 76 80 82 82 82 77 68 58 50 49 57 64 71 76 72 56 42 40 40 37 36 35 29 23 19 16 15 15 13 12 17 26 32 34 32 31 32 31 31 36 38 35 33 41 49 50 51 54 57 63 70 75 80
34 35 37 38 38 39 39 40 40 41 42 43 44 44 45 46 47 47 46 46 46 46 44 44 47 52 57 62 70 76 78 80 85 89 86 83 82 77 65 52 45 48 57 65 70 76 74 58 44 42 42 38 37 35 29 23 20 17 15 16 14 11 15 23 30 34 33 32 33 32 31 35 39 37 33 35 40 45 48 50 53 60 67 72 75
40 42 42 42 42 43 44 46 48 49 50 50 49 48 48 48 49 49 49 48 49 50 48 46 45 50 56 61 66 71 75 79 84 87 85 85 84 77 62 48 41 47 60 66 69 75 76 61 46 43 43 39 37 35 29 24 21 17 15 16 14 11 13 20 28 33 34 33 34 33 32 34 39 40 36 34 37 43 48 52 56 64 70 71 72
43 43 43 44 45 46 47 49 51 51 52 52 51 51 51 51 50 50 50 48 49 51 52 49 47 49 56 61 64 67 72 77 82 84 83 84 83 75 59 45 41 50 62 67 68 75 77 63 48 44 43 39 36 35 30 25 21 18 15 16 16 12 12 17 26 32 34 34 34 34 32 34 39 42 39 36 37 45 53 59 65 69 72 72 74
45 46 46 47 48 48 48 49 49 49 49 49 50 52 52 52 52 53 52 51 52 52 53 52 49 50 55 61 65 66 69 75 83 86 84 82 82 75 60 46 43 52 62 66 67 74 77 64 49 44 44 39 36 35 31 25 22 18 16 16 16 14 11 15 24 29 31 33 34 34 32 33 38 43 41 37 38 47 58 65 69 71 73 75 78
48 49 49 50 51 50 50 50 49 48 48 48 50 52 53 53 54 55 55 55 55 55 55 54 52 51 55 61 66 68 68 71 79 85 85 84 85 80 67 52 46 52 61 63 66 75 78 65 50 44 43 39 36 35 31 26 22 19 16 16 17 16 14 16 22 26 28 30 33 33 32 32 36 41 42 38 36 44 57 66 69 72 74 76 79
50 51 51 52 52 51 50 50 49 49 49 49 50 53 55 55 56 57 57 57 57 56 57 56 54 54 56 61 66 69 69 68 74 81 88 89 88 83 72 58 49 53 59 61 65 75 79 65 49 44 42 39 36 35 32 27 23 20 16 16 17 17 15 16 21 25 28 31 33 33 32 32 32 36 41 40 35 38 50 61 68 73 76 77 79
51 52 52 52 52 51 50 50 51 53 53 53 54 56 57 58 58 58 59 59 59 58 58 57 56 56 58 62 66 70 70 70 74 83 92 93 88 83 76 64 52 51 57 61 66 78 79 64 48 43 42 39 36 35 32 28 24 20 17 16 18 18 16 16 21 26 30 31 33 34 33 32 31 32 37 41 38 35 41 51 62 70 75 77 78
52 52 52 52 51 51 51 53 56 58 59 59 60 62 63 63 62 61 60 60 59 59 59 58 56 57 60 63 67 70 71 71 76 86 94 93 88 86 82 68 53 50 56 61 69 80 79 61 47 44 43 40 38 36 32 28 25 21 17 16 17 18 16 15 20 27 29 29 31 33 33 32 30 29 32 38 40 37 37 43 54 65 73 76 78
53 53 53 52 52 53 55 59 62 64 65 66 67 69 70 71 70 68 66 63 60 59 61 60 57 57 61 65 68 71 73 74 77 85 91 91 88 87 82 66 50 49 56 61 71 82 78 60 47 45 44 41 39 36 31 28 25 21 18 17 17 18 18 15 17 24 28 28 28 30 29 27 27 28 29 33 39 40 39 40 47 58 68 74 77
53 53 53 53 54 57 60 64 67 68 70 71 72 73 75 76 76 76 75 70 63 59 61 61 58 57 61 67 70 72 75 77 78 82 89 91 90 88 81 64 50 49 55 62 74 83 76 57 47 46 45 42 41 37 31 28 25 22 19 17 16 18 18 15 14 20 25 26 25 25 24 24 27 30 29 29 33 38 41 41 44 53 63 70 74